EYESAT A (AO-27)

Last updated on Mon Sep 21 2026 00:03:14 GMT+0000 (Coordinated Universal Time)

1 22825U 93061C 26263.16552080 .00000029 00000+0 28062-4 0 9996 2 22825 98.6789 330.5008 0008482 174.2728 185.8553 14.30962074720583
UTC large
Height (km)
Speed (km/s)
/
Latitude / Longitude
Inclination (degrees)
Orbital Period (minutes)
Azimuth
Elevation
Range (km)
Doppler Factor

Next 0 passes for location: London (51.5072 / 0.1276)

No passes found over London.
EYESAT A (AO-27)